Погода Ровно

Погода Ровно : погода сейчас, прогноз погоды и архив. Всё, что Вы хотите узнать о погоде Ровно!

Поиск расширенной информации на нашем сайте:

Другие новости

Новости СМИ2

Главная страница сайта

Новости сайта

03.07.2017

Напоминаем, что на нашем специализированном сайте Метеоцентр.Азия вы можете получить высокодетализированные автоматические прогнозы погоды по пунктам России, СНГ и мира в авиационном формате (включающие направление и скорость ветра, видимость, явления погоды, количество и форму облачности, нижнюю и верхнюю границу облачности).


Погода Ровно - сегодня

Время (UTC), дата Ветер
(°,м/с) 
Видим.   Явления Облачность Т
(°С)
Тd
(°С)
f(%) Тe
(°С)
Pmin
(гПа)
dP
(гПа)
Po
(мм)
O2
(г/м3)
Тmin Tmax R s Состояние
почвы
15 18.10.17 240 (ЮЗ) 20000 м    3/0 верхняя 
[Ci fib]
+17.4 +10.5 64 +20  1016.2  -0.5  742  279           
18 18.10.17 220 (ЮЗ) 10 км    8/0 средняя, верхняя 
[Ac trans|Ci fib]
+12.9 +9.8 81 +14  1016.6  742  284    +21.9       
21 18.10.17 270 (З) 10 км    5/0 средняя, верхняя 
[Ac trans|Ci fib]
+10.6 +9.2 91 +12  1016.5  -0.3  742  286           
00 19.10.17 тихо ()   10 км    3/0 верхняя 
[Ci fib]
+9 +8.2 95 +9  1016.5  -0.2  741  288           
03 19.10.17 тихо ()   4000 м  дымка  6/0 верхняя 
[Ci fib]
+7.7 +7.3 97 +8  1016.2  -0.4  741  289           
06 19.10.17 тихо ()   4000 м  дымка  9/3 600 м средняя 
[Sc|Ac trans]
+9.1 +8.3 95 +9  1016.3  0.2  741  288  +7.2         
09 19.10.17 130 (ЮВ) 10 км    8/0 средняя, верхняя 
[Ac trans|Ci fib]
+15.9 +11.7 76 +21  1015.8  0.2  741  280           
12 19.10.17 тихо ()   10 км    6/0 средняя, верхняя 
[Ac trans|Ci fib]
+21 +10.4 51 +23  1014.5  -0.8  741  275           
15 19.10.17 060 (СВ) 10 км    8/3 600 м средняя 
[Sc|Ac trans]
+16.6 +13 79 +23  1015  0.1  741  279           
18 19.10.17 060 (СВ) 4000 м  дымка  ясно 
+12.7 +12 96 +17  1016.3  0.9  742  283    +21.3       
21 19.10.17 070 (В) 4000 м  дымка  ясно 
+11.1 +10.3 95 +13  1017.5  742  286           
00 20.10.17 090 (В) 4000 м  дымка  8/0 средняя 
[Ac trans]
+10.3 +9.5 95 +11  1018.2  0.6  743  287           
03 20.10.17 100 (В) 10 км    8/0 средняя 
[Ac trans]
+10.5 +9.5 94 +12  1018.3  0.1  743  287           
06 20.10.17 090 (В) 10 км    10/3 1000 м средняя 
[Sc|Ac und]
+10.7 +9.7 94 +12  1019.3  744  287  +9         
09 20.10.17 100 (В) 10 км    9/4 1000 м средняя 
[Sc|Ac trans]
+12.6 +10.1 85 +13  1019.7  0.6  744  285           
12 20.10.17 100 (В) 10 км    9/4 1000 м средняя 
[Sc|Ac trans]
+14.8 +11.3 80 +18  1019  -0.5  744  282           
15 20.10.17 090 (В) 10 км    10/6 800 м средняя 
[Sc|Ac und]
+14.4 +10.2 76 +16  1018.7  -0.3  743  283           
18 20.10.17 110 (В) 10 км    10/10 480 м 
[Sc]
+11.9 +9.5 85 +12  1019.5  0.5  744  285    +15.2       
21 20.10.17 110 (В) 10 км    10/10 360 м 
[Sc]
+10.3 +8.9 91 +9  1019.5  -0.1  744  287           
00 21.10.17 120 (ЮВ) 10 км    10/5 300 м средняя 
[Sc|Ac und]
+10.2 +9.2 94 +10  1018.5  -1  743  287           
03 21.10.17 120 (ЮВ) 4000 м  дымка  10/0 средняя 
[Ac und]
+10.3 +9.7 96 +12  1017.6  -0.9  742  286           
06 21.10.17 200 (Ю) 4000 м  дымка  10/0 средняя 
[Ac und]
+10.6 +10 96 +13  1016.7  -0.8  742  286  +10         
09 21.10.17 190 (Ю) 2000 м  слаб. морось  10/10 240 м 
[St]
+11.3 +10.7 96 +14  1015.7  -0.9  741  285           
12 21.10.17 300 (СЗ) 4000 м  дымка{морось}  10/8 360 м средняя 
[Sc|Ac und]
+11.7 +10.2 91 +14  1013.7  -1.9  740  284      0.0     
15 21.10.17 290 (З) 2000 м  дымка  10/10 210 м 
[St]
+11.1 +10.1 94 +13  1013.4  -0.4  739  284           
Время (UTC), дата Ветер
(°,м/с) 
Видим.   Явления Облачность Т
(°С)
Тd
(°С)
f(%) Тe
(°С)
Pmin
(гПа)
dP
(гПа)
Po
(мм)
O2
(г/м3)
Тmin Tmax R s Состояние
почвы

Для получения пояснительной информации подведите курсор к названию столбца.

ПОГОДА Ровно - архив

Всё, что Вы хотите узнать о погоде Ровно - удобно и подробно!

Выберите нужную дату (начиная с 1 января 2015* года) и нажмите кнопку "Найти".
Будут отображены архивные сводки погоды по пункту Ровно, начиная с указанной даты.


Отображать данные в формате CSV (для использования в таблицах Excel)


Внимание! Наш архив погоды предназначен исключительно для личного некоммерческого использования в познавательных целях. Если Вам необходимы официальные справки о состоянии погоды (для производственных, юридических, коммерческих и т.п. целей), обращайтесь в органы Росгидромета.

*Примечание: данная дата относится к архиву по метеостанциям СССР (Россия, СНГ, Балтия).
Архив по метеостанциям Зарубежной Европы и Азии (кроме Китая) хранится 10 дней, по другим регионам земного шара (Китай, Африка, Америка, Австралия, Океания) - 1 день.

Ровно - район местоположения метеостанции


Название, широта, долгота, высота метеостанции:
Ровно 50.6°ш. 26.1°д. 231 м над ур. моря [Украина]

Дополнительная информация

В oтличие oт бoльшинства пoгoдных сайтoв мы публикуем пoдрoбную метеoинфoрмацию в детальнoм прoфессиoнальнoм фoрмате.

Характеристики температуры и влажнoсти вoздуха измеряются на высoте 2 м в тени вдали oт зданий и деревьев.
Скoрoсть ветра измеряется на высoте 10 м (на урoвне рoста челoвека скoрoсть ветра ниже в 1.5-2 раза). Если метеoстанция нахoдится в гoрoде или в лесу, тo скoрoсть ветра занижена на 2-4 м/с пo сравнению с oткрытым местoм. Скoрoсть ветра над акватoриями крупных рек и oзёр, а также на вершинах хoлмoв на 2-5 м/с выше, чем в oбычных услoвиях.
Атмoсфернoе давление в разных тoчках местнoсти мoжет значительнo oтличаться oт давления на метеoстанции, в зависимoсти oт услoвий рельефа (при пoдъёме на 10 м давление пoнижается примернo на 1 мм рт.ст.).